Home > Weather > Mumbai > Past weeks

Flag for India Past Weather in Mumbai, Maharashtra, India — Yesterday and Last 2 Weeks

Now
81 °F

Broken clouds.


Feels Like: 88 °F
Forecast: 82 / 86 °F
Wind: 10 mph from Southwest

Location: Mumbai / Santacruz

Current Time: Aug 28, 2016 at 2:26:38 PM

Latest Report: Aug 28, 2016 at 1:30 PM


Visibility: 1 mi

Pressure: 29.74 "Hg

Humidity: 94%

Dew Point: 79 °F

Location of MumbaiLocation

Past Weather in Mumbai — Graph

°F

Mumbai Temperature Yesterday

Maximum temperature yesterday: 81 °F (at 10:00 PM)
Minimum temperature yesterday: 75 °F (at 6:30 AM)
Average temperature yesterday: 78 °F

High & Low Weather Summary for the Past Weeks

 TemperatureHumidityPressure
High86 °F (Aug 13, 1:30 PM)100% (Aug 26, 10:30 PM)29.77 "Hg (Aug 26, 10:30 PM)
Low75 °F (Aug 27, 6:30 AM)62% (Aug 22, 4:00 PM)29.62 "Hg (Aug 17, 4:30 PM)
Average82 °F84%29.71 "Hg
* Reported Aug 13 1:30 PM — Aug 28 1:30 PM, Mumbai, Weather by CustomWeather, © 2016

Note: Actual official high and low records may vary slightly from our data, if they occured in-between our weather recording intervals... More about our weather records

Advertising

Mumbai Weather History for the Previous 24 Hours

Scroll right to see more
 ConditionsComfort  
Time TempWeatherWind HumidityBarometerVisibility
1:30 PM
Sun, Aug 28
81 °FBroken clouds.10 mph94%29.74 "Hg1 mi
1:00 PM81 °FBroken clouds.9 mph100%29.74 "Hg1 mi
12:30 PM81 °FScattered showers. More clouds than sun.8 mph100%29.74 "Hg1 mi
12:00 PM81 °FRain. More clouds than sun.7 mph94%29.77 "Hg1 mi
11:30 AM79 °FLight rain. More clouds than sun.7 mph100%29.77 "Hg1 mi
11:00 AM79 °FSprinkles. More clouds than sun.10 mph94%29.77 "Hg1 mi
10:30 AM79 °FSprinkles. More clouds than sun.6 mph94%29.77 "Hg1 mi
10:00 AM79 °FLight rain. More clouds than sun.5 mph100%29.77 "Hg1 mi
9:30 AM79 °FSprinkles. More clouds than sun.6 mph94%29.77 "Hg1 mi
9:00 AM77 °FRain showers. More clouds than sun.6 mph100%29.77 "Hg1 mi
8:30 AM77 °FRain showers. More clouds than sun.9 mph100%29.74 "Hg1 mi
8:00 AM77 °FLots of rain. More clouds than sun.No wind100%29.74 "Hg1 mi
7:30 AM77 °FLots of rain. More clouds than sun.7 mph100%29.71 "Hg1 mi
7:00 AM79 °FLots of rain. More clouds than sun.5 mph94%29.71 "Hg1 mi
6:30 AM77 °FLight rain. Mostly cloudy.5 mph100%29.71 "Hg1 mi
6:00 AM77 °FLight rain. Mostly cloudy.3 mph100%29.71 "Hg1 mi
5:30 AM77 °FLight rain. Mostly cloudy.6 mph100%29.68 "Hg1 mi
5:00 AM77 °FLight rain. Mostly cloudy.7 mph100%29.68 "Hg1 mi
4:30 AM77 °FRain. Mostly cloudy.6 mph100%29.68 "Hg1 mi
4:00 AM79 °FRain. Partly cloudy.7 mph94%29.68 "Hg1 mi
3:30 AM79 °FPartly cloudy.6 mph94%29.68 "Hg1 mi
3:00 AM79 °FLight rain. Partly cloudy.6 mph94%29.68 "Hg1 mi
2:30 AM79 °FPartly cloudy.6 mph94%29.71 "Hg1 mi
2:00 AM79 °FScattered showers. Partly cloudy.5 mph94%29.71 "Hg1 mi
1:30 AM79 °FLight rain. Mostly cloudy.5 mph94%29.71 "Hg1 mi
1:00 AM79 °FLight rain. Partly cloudy.3 mph94%29.74 "Hg1 mi
12:30 AM79 °FLight rain. Partly cloudy.6 mph94%29.74 "Hg1 mi
12:00 AM79 °FPartly cloudy.5 mph94%29.74 "Hg1 mi
11:30 PM
Sat, Aug 27
79 °FLight rain. Partly cloudy.No wind94%29.74 "Hg1 mi
10:30 PM81 °FPartly cloudy.5 mph89%29.74 "Hg1 mi
10:00 PM81 °FPartly cloudy.3 mph89%29.74 "Hg1 mi
9:30 PM79 °FPartly cloudy.5 mph94%29.74 "Hg1 mi
9:00 PM79 °FPartly cloudy.7 mph94%29.71 "Hg1 mi
8:30 PM79 °FMostly cloudy.6 mph94%29.71 "Hg1 mi
8:00 PM79 °FLight rain. Mostly cloudy.6 mph94%29.71 "Hg1 mi
7:30 PM79 °FLight rain. Mostly cloudy.5 mph94%29.68 "Hg1 mi
7:00 PM79 °FLight rain. More clouds than sun.7 mph94%29.68 "Hg1 mi
6:30 PM79 °FScattered showers. More clouds than sun.7 mph94%29.68 "Hg1 mi
6:00 PM79 °FScattered showers. More clouds than sun.6 mph94%29.68 "Hg1 mi
5:30 PM79 °FScattered showers. More clouds than sun.9 mph94%29.65 "Hg1 mi
5:00 PM79 °FMore clouds than sun.8 mph94%29.65 "Hg1 mi
4:30 PM79 °FLight rain. More clouds than sun.9 mph94%29.65 "Hg1 mi
4:00 PM79 °FLight rain. More clouds than sun.8 mph94%29.65 "Hg1 mi
3:30 PM79 °FLight rain. More clouds than sun.8 mph94%29.68 "Hg1 mi
3:00 PM77 °FLight rain. More clouds than sun.7 mph100%29.68 "Hg1 mi
2:30 PM77 °FLight rain. More clouds than sun.8 mph100%29.68 "Hg1 mi
2:00 PM77 °FLight rain. More clouds than sun.7 mph100%29.71 "Hg1 mi
Weather by CustomWeather, © 2016

See weather overviewHow to use our weather pages